Time,TemperatureF,DewpointF,PressureIn,WindDirection,WindDirectionDegrees,WindSpeedMPH,WindSpeedGustMPH,Humidity,HourlyPrecipIn,Conditions,Clouds,dailyrainin,SoftwareType,DateUTC
2013-06-27 00:00:00,75.3,73.7,29.73,WNW,285,0.0,1.0,95,0.00,RA,,0.00,WeatherDisplay:10.37,2013-06-27 05:00:00,
2013-06-27 00:05:00,74.8,73.3,29.73,WNW,284,0.0,1.0,95,0.00,RA,,0.00,WeatherDisplay:10.37,2013-06-27 05:05:00,
2013-06-27 00:10:00,74.5,73.3,29.73,WNW,284,1.0,1.0,96,0.00,,,0.00,WeatherDisplay:10.37,2013-06-27 05:10:00,
2013-06-27 00:20:00,74.2,73.0,29.73,WNW,284,0.0,0.0,96,0.00,,,0.00,WeatherDisplay:10.37,2013-06-27 05:20:00,
2013-06-27 00:30:00,73.7,72.5,29.73,WNW,283,0.0,1.0,96,0.00,,,0.00,WeatherDisplay:10.37,2013-06-27 05:30:00,
2013-06-27 00:40:00,74.0,73.1,29.73,SW,226,0.0,2.0,97,0.00,,,0.00,WeatherDisplay:10.37,2013-06-27 05:40:00,
2013-06-27 00:50:00,73.8,72.9,29.73,SW,220,1.0,1.0,97,0.00,,,0.00,WeatherDisplay:10.37,2013-06-27 05:50:00,
2013-06-27 00:55:00,73.7,72.8,29.73,SSW,206,1.0,2.0,97,0.00,,,0.00,WeatherDisplay:10.37,2013-06-27 05:55:00,
2013-06-27 01:00:00,73.7,72.8,29.73,SSW,203,0.0,0.0,97,0.00,,,0.00,WeatherDisplay:10.37,2013-06-27 06:00:00,
2013-06-27 01:10:00,73.9,73.3,29.73,SW,227,1.0,3.0,98,0.00,,,0.00,WeatherDisplay:10.37,2013-06-27 06:10:00,
2013-06-27 01:20:00,74.0,73.4,29.73,SW,235,0.0,0.0,98,0.00,,,0.00,WeatherDisplay:10.37,2013-06-27 06:20:00,
2013-06-27 01:25:00,74.0,73.1,29.73,SW,235,0.0,0.0,97,0.00,,,0.00,WeatherDisplay:10.37,2013-06-27 06:25:00,
2013-06-27 01:30:00,74.1,73.5,29.73,WSW,243,1.0,2.0,98,0.00,,,0.00,WeatherDisplay:10.37,2013-06-27 06:30:00,
2013-06-27 01:35:00,74.2,73.6,29.73,WSW,258,0.0,1.0,98,0.00,,,0.00,WeatherDisplay:10.37,2013-06-27 06:35:00,
2013-06-27 01:40:00,74.2,73.6,29.73,West,262,0.0,1.0,98,0.00,,,0.00,WeatherDisplay:10.37,2013-06-27 06:40:00,
2013-06-27 01:50:00,74.4,73.8,29.73,West,270,1.0,4.0,98,0.00,,,0.00,WeatherDisplay:10.37,2013-06-27 06:50:00,
2013-06-27 01:55:00,74.5,73.9,29.73,West,263,1.0,2.0,98,0.00,,,0.00,WeatherDisplay:10.37,2013-06-27 06:55:00,
2013-06-27 02:05:00,74.3,73.4,29.73,West,268,1.0,2.0,97,0.00,,,0.00,WeatherDisplay:10.37,2013-06-27 07:05:00,
2013-06-27 02:10:00,74.2,73.3,29.73,West,274,2.0,3.0,97,0.00,,,0.00,WeatherDisplay:10.37,2013-06-27 07:10:00,
2013-06-27 02:15:00,74.3,73.4,29.73,West,279,2.0,3.0,97,0.00,,,0.00,WeatherDisplay:10.37,2013-06-27 07:15:00,
2013-06-27 02:20:00,74.3,73.4,29.73,WNW,282,2.0,4.0,97,0.00,,,0.00,WeatherDisplay:10.37,2013-06-27 07:20:00,
2013-06-27 02:25:00,74.2,73.3,29.73,WNW,286,2.0,4.0,97,0.00,,,0.00,WeatherDisplay:10.37,2013-06-27 07:25:00,
2013-06-27 02:30:00,74.1,73.2,29.73,WNW,288,2.0,3.0,97,0.00,,,0.00,WeatherDisplay:10.37,2013-06-27 07:30:00,
2013-06-27 02:40:00,73.9,73.0,29.73,WNW,285,2.0,2.0,97,0.00,,,0.00,WeatherDisplay:10.37,2013-06-27 07:40:00,
2013-06-27 02:50:00,73.8,72.9,29.74,WNW,290,2.0,3.0,97,0.00,,,0.00,WeatherDisplay:10.37,2013-06-27 07:50:00,
2013-06-27 02:55:00,73.6,72.7,29.74,WNW,294,1.0,3.0,97,0.00,,,0.00,WeatherDisplay:10.37,2013-06-27 07:55:00,
2013-06-27 03:00:00,73.5,72.6,29.74,WNW,294,1.0,2.0,97,0.00,,,0.00,WeatherDisplay:10.37,2013-06-27 08:00:00,
2013-06-27 03:05:00,73.4,72.5,29.74,WNW,291,2.0,2.0,97,0.00,,,0.00,WeatherDisplay:10.37,2013-06-27 08:05:00,
2013-06-27 03:15:00,73.4,72.5,29.74,WNW,289,1.0,3.0,97,0.00,,,0.00,WeatherDisplay:10.37,2013-06-27 08:15:00,
2013-06-27 03:20:00,73.4,72.5,29.74,WNW,288,1.0,2.0,97,0.00,,,0.00,WeatherDisplay:10.37,2013-06-27 08:20:00,
2013-06-27 03:25:00,73.2,72.3,29.74,WNW,286,0.0,2.0,97,0.00,,,0.00,WeatherDisplay:10.37,2013-06-27 08:25:00,
2013-06-27 03:30:00,73.1,72.2,29.74,WNW,287,0.0,1.0,97,0.00,,,0.00,WeatherDisplay:10.37,2013-06-27 08:30:00,
2013-06-27 03:35:00,72.9,72.0,29.74,WNW,287,0.0,1.0,97,0.00,,,0.00,WeatherDisplay:10.37,2013-06-27 08:35:00,
2013-06-27 03:40:00,72.8,71.9,29.74,WNW,287,1.0,1.0,97,0.00,,,0.00,WeatherDisplay:10.37,2013-06-27 08:40:00,
2013-06-27 03:45:00,72.7,71.8,29.74,WNW,287,0.0,1.0,97,0.00,,,0.00,WeatherDisplay:10.37,2013-06-27 08:45:00,
2013-06-27 03:50:00,72.3,71.4,29.74,WNW,287,0.0,1.0,97,0.00,,,0.00,WeatherDisplay:10.37,2013-06-27 08:50:00,
2013-06-27 03:55:00,72.4,71.5,29.74,WNW,285,1.0,2.0,97,0.00,,,0.00,WeatherDisplay:10.37,2013-06-27 08:55:00,
2013-06-27 04:00:00,72.5,71.6,29.74,WNW,288,2.0,3.0,97,0.00,,,0.00,WeatherDisplay:10.37,2013-06-27 09:00:00,
2013-06-27 04:05:00,72.6,71.7,29.75,WNW,291,1.0,3.0,97,0.00,,,0.00,WeatherDisplay:10.37,2013-06-27 09:05:00,
2013-06-27 04:10:00,72.4,71.5,29.75,WNW,290,1.0,2.0,97,0.00,,,0.00,WeatherDisplay:10.37,2013-06-27 09:10:00,
2013-06-27 04:15:00,72.3,71.4,29.75,WNW,284,1.0,2.0,97,0.00,,,0.00,WeatherDisplay:10.37,2013-06-27 09:15:00,
2013-06-27 04:20:00,72.0,71.1,29.75,WNW,283,1.0,2.0,97,0.00,,,0.00,WeatherDisplay:10.37,2013-06-27 09:20:00,
2013-06-27 04:25:00,72.0,71.1,29.75,WNW,284,1.0,2.0,97,0.00,,,0.00,WeatherDisplay:10.37,2013-06-27 09:25:00,
2013-06-27 04:30:00,72.0,71.1,29.75,WNW,284,1.0,2.0,97,0.00,,,0.00,WeatherDisplay:10.37,2013-06-27 09:30:00,
2013-06-27 04:35:00,72.0,70.8,29.75,WNW,285,1.0,2.0,96,0.00,,,0.00,WeatherDisplay:10.37,2013-06-27 09:35:00,
2013-06-27 04:40:00,72.0,70.8,29.75,WNW,286,1.0,3.0,96,0.00,,,0.00,WeatherDisplay:10.37,2013-06-27 09:40:00,
2013-06-27 04:45:00,72.1,70.9,29.75,WNW,288,1.0,3.0,96,0.00,,,0.00,WeatherDisplay:10.37,2013-06-27 09:45:00,
2013-06-27 04:50:00,72.0,70.5,29.75,WNW,290,1.0,2.0,95,0.00,,,0.00,WeatherDisplay:10.37,2013-06-27 09:50:00,
2013-06-27 04:55:00,71.8,70.3,29.75,WNW,296,1.0,2.0,95,0.00,,,0.00,WeatherDisplay:10.37,2013-06-27 09:55:00,
2013-06-27 05:00:00,71.6,70.1,29.75,NW,308,1.0,2.0,95,0.00,,,0.00,WeatherDisplay:10.37,2013-06-27 10:00:00,
2013-06-27 05:05:00,71.5,70.0,29.75,NW,310,1.0,2.0,95,0.00,,,0.00,WeatherDisplay:10.37,2013-06-27 10:05:00,
2013-06-27 05:10:00,71.4,69.9,29.76,NW,306,0.0,2.0,95,0.00,,,0.00,WeatherDisplay:10.37,2013-06-27 10:10:00,
2013-06-27 05:15:00,71.2,69.7,29.76,NW,305,0.0,2.0,95,0.00,,,0.00,WeatherDisplay:10.37,2013-06-27 10:15:00,
2013-06-27 05:20:00,71.1,69.6,29.76,WNW,297,1.0,2.0,95,0.00,,,0.00,WeatherDisplay:10.37,2013-06-27 10:20:00,
2013-06-27 05:25:00,71.1,69.6,29.76,WNW,289,0.0,2.0,95,0.00,,,0.00,WeatherDisplay:10.37,2013-06-27 10:25:00,
2013-06-27 05:30:00,71.0,69.5,29.77,WNW,285,1.0,1.0,95,0.00,,,0.00,WeatherDisplay:10.37,2013-06-27 10:30:00,
2013-06-27 05:40:00,70.8,69.3,29.76,WNW,285,0.0,1.0,95,0.00,,,0.00,WeatherDisplay:10.37,2013-06-27 10:40:00,
2013-06-27 05:45:00,70.9,69.4,29.77,WNW,285,1.0,1.0,95,0.00,,,0.00,WeatherDisplay:10.37,2013-06-27 10:45:00,
2013-06-27 05:50:00,70.8,69.3,29.77,WNW,286,1.0,2.0,95,0.00,,,0.00,WeatherDisplay:10.37,2013-06-27 10:50:00,
2013-06-27 06:00:00,70.7,69.2,29.77,WNW,285,1.0,2.0,95,0.00,,,0.00,WeatherDisplay:10.37,2013-06-27 11:00:00,
2013-06-27 06:05:00,70.9,69.4,29.77,WNW,284,1.0,2.0,95,0.00,,,0.00,WeatherDisplay:10.37,2013-06-27 11:05:00,
2013-06-27 06:10:00,71.0,69.5,29.77,WNW,287,1.0,3.0,95,0.00,,,0.00,WeatherDisplay:10.37,2013-06-27 11:10:00,
2013-06-27 06:15:00,71.1,69.6,29.77,WNW,290,2.0,3.0,95,0.00,,,0.00,WeatherDisplay:10.37,2013-06-27 11:15:00,
2013-06-27 06:20:00,71.2,69.6,29.78,WNW,289,2.0,3.0,95,0.00,,,0.00,WeatherDisplay:10.37,2013-06-27 11:20:00,
2013-06-27 06:30:00,71.2,69.7,29.78,WNW,289,2.0,3.0,95,0.00,,,0.00,WeatherDisplay:10.37,2013-06-27 11:30:00,
2013-06-27 06:35:00,71.4,69.9,29.78,WNW,289,2.0,3.0,95,0.00,,,0.00,WeatherDisplay:10.37,2013-06-27 11:35:00,
2013-06-27 06:40:00,71.6,69.8,29.78,WNW,290,2.0,3.0,94,0.00,,,0.00,WeatherDisplay:10.37,2013-06-27 11:40:00,
2013-06-27 06:45:00,71.7,69.9,29.78,WNW,299,1.0,3.0,94,0.00,,,0.00,WeatherDisplay:10.37,2013-06-27 11:45:00,
2013-06-27 06:50:00,71.9,69.8,29.78,NW,306,2.0,3.0,93,0.00,,,0.00,WeatherDisplay:10.37,2013-06-27 11:50:00,
2013-06-27 06:55:00,72.1,69.9,29.78,NW,306,2.0,3.0,93,0.00,,,0.00,WeatherDisplay:10.37,2013-06-27 11:55:00,
2013-06-27 07:00:00,72.3,70.2,29.78,NW,314,1.0,3.0,93,0.00,,,0.00,WeatherDisplay:10.37,2013-06-27 12:00:00,
2013-06-27 07:05:00,72.6,70.1,29.78,NW,320,2.0,4.0,92,0.00,,,0.00,WeatherDisplay:10.37,2013-06-27 12:05:00,
2013-06-27 07:10:00,72.9,70.8,29.79,NW,314,2.0,4.0,93,0.00,,,0.00,WeatherDisplay:10.37,2013-06-27 12:10:00,
2013-06-27 07:15:00,73.2,70.4,29.79,NW,308,2.0,4.0,91,0.00,,,0.00,WeatherDisplay:10.37,2013-06-27 12:15:00,
2013-06-27 07:20:00,73.5,70.7,29.79,NW,306,2.0,4.0,91,0.00,,,0.00,WeatherDisplay:10.37,2013-06-27 12:20:00,
2013-06-27 07:25:00,73.7,70.3,29.79,NW,311,3.0,4.0,89,0.00,,,0.00,WeatherDisplay:10.37,2013-06-27 12:25:00,
2013-06-27 07:30:00,74.0,70.6,29.79,NW,307,2.0,4.0,89,0.00,,,0.00,WeatherDisplay:10.37,2013-06-27 12:30:00,
2013-06-27 07:40:00,74.6,70.8,29.80,WNW,300,3.0,5.0,88,0.00,,,0.00,WeatherDisplay:10.37,2013-06-27 12:40:00,
2013-06-27 07:45:00,74.9,71.1,29.80,NW,309,2.0,5.0,88,0.00,,,0.00,WeatherDisplay:10.37,2013-06-27 12:45:00,
2013-06-27 07:55:00,75.6,71.8,29.80,WNW,300,2.0,4.0,88,0.00,,,0.00,WeatherDisplay:10.37,2013-06-27 12:55:00,
2013-06-27 08:05:00,76.2,72.1,29.80,WNW,303,2.0,4.0,87,0.00,,,0.00,WeatherDisplay:10.37,2013-06-27 13:05:00,
2013-06-27 08:10:00,76.5,72.0,29.80,WNW,302,2.0,5.0,86,0.00,,,0.00,WeatherDisplay:10.37,2013-06-27 13:10:00,
2013-06-27 08:15:00,76.7,72.2,29.80,NW,304,2.0,4.0,86,0.00,,,0.00,WeatherDisplay:10.37,2013-06-27 13:15:00,
2013-06-27 08:20:00,77.0,72.5,29.80,NW,308,2.0,6.0,86,0.00,,,0.00,WeatherDisplay:10.37,2013-06-27 13:20:00,
2013-06-27 08:30:00,77.2,72.0,29.80,NW,318,3.0,7.0,84,0.00,,,0.00,WeatherDisplay:10.37,2013-06-27 13:30:00,
2013-06-27 08:35:00,77.4,71.8,29.80,NW,313,3.0,7.0,83,0.00,,,0.00,WeatherDisplay:10.37,2013-06-27 13:35:00,
2013-06-27 08:40:00,77.7,72.5,29.80,NW,311,3.0,5.0,84,0.00,,,0.00,WeatherDisplay:10.37,2013-06-27 13:40:00,
2013-06-27 08:45:00,77.9,72.6,29.80,NW,315,2.0,4.0,84,0.00,,,0.00,WeatherDisplay:10.37,2013-06-27 13:45:00,
2013-06-27 08:50:00,78.2,72.7,29.80,WNW,300,2.0,4.0,83,0.00,,,0.00,WeatherDisplay:10.37,2013-06-27 13:50:00,
2013-06-27 08:55:00,78.5,72.9,29.80,NW,306,3.0,6.0,83,0.00,,,0.00,WeatherDisplay:10.37,2013-06-27 13:55:00,
2013-06-27 09:00:00,78.7,73.1,29.80,NW,309,2.0,6.0,83,0.00,CLR,,0.00,WeatherDisplay:10.37,2013-06-27 14:00:00,
2013-06-27 09:05:00,79.1,72.8,29.80,NW,305,2.0,5.0,81,0.00,CLR,,0.00,WeatherDisplay:10.37,2013-06-27 14:05:00,
2013-06-27 09:15:00,79.4,73.4,29.80,NW,304,3.0,6.0,82,0.00,CLR,,0.00,WeatherDisplay:10.37,2013-06-27 14:15:00,
2013-06-27 09:20:00,79.7,73.0,29.80,NW,306,3.0,7.0,80,0.00,CLR,,0.00,WeatherDisplay:10.37,2013-06-27 14:20:00,
2013-06-27 09:25:00,79.9,73.6,29.80,NW,312,3.0,5.0,81,0.00,CLR,,0.00,WeatherDisplay:10.37,2013-06-27 14:25:00,
2013-06-27 09:30:00,80.2,73.5,29.79,NNW,331,3.0,6.0,80,0.00,CLR,,0.00,WeatherDisplay:10.37,2013-06-27 14:30:00,
2013-06-27 09:35:00,80.6,74.6,29.79,NW,325,2.0,4.0,82,0.00,CLR,,0.00,WeatherDisplay:10.37,2013-06-27 14:35:00,
2013-06-27 09:45:00,81.2,74.4,29.79,NW,311,2.0,4.0,80,0.00,CLR,,0.00,WeatherDisplay:10.37,2013-06-27 14:45:00,
2013-06-27 09:50:00,81.4,74.2,29.79,WNW,303,3.0,5.0,79,0.00,CLR,,0.00,WeatherDisplay:10.37,2013-06-27 14:50:00,
2013-06-27 10:00:00,81.9,73.9,29.78,NW,312,2.0,5.0,77,0.00,,,0.00,WeatherDisplay:10.37,2013-06-27 15:00:00,
2013-06-27 10:05:00,82.1,74.2,29.78,NW,310,3.0,6.0,77,0.00,,,0.00,WeatherDisplay:10.37,2013-06-27 15:05:00,
2013-06-27 10:10:00,82.4,74.5,29.78,NW,313,3.0,6.0,77,0.00,,,0.00,WeatherDisplay:10.37,2013-06-27 15:10:00,
2013-06-27 10:15:00,82.4,74.4,29.78,NW,309,5.0,6.0,77,0.00,,,0.00,WeatherDisplay:10.37,2013-06-27 15:15:00,
2013-06-27 10:20:00,82.4,74.1,29.78,NW,306,5.0,7.0,76,0.00,,,0.00,WeatherDisplay:10.37,2013-06-27 15:20:00,
2013-06-27 10:25:00,82.7,74.3,29.79,NW,318,5.0,7.0,76,0.00,,,0.00,WeatherDisplay:10.37,2013-06-27 15:25:00,
2013-06-27 10:35:00,83.2,74.5,29.78,NW,317,5.0,8.0,75,0.00,,,0.00,WeatherDisplay:10.37,2013-06-27 15:35:00,
2013-06-27 10:40:00,83.2,74.0,29.79,NW,304,5.0,7.0,74,0.00,,,0.00,WeatherDisplay:10.37,2013-06-27 15:40:00,
2013-06-27 10:45:00,83.3,74.1,29.79,WNW,302,5.0,8.0,74,0.00,,,0.00,WeatherDisplay:10.37,2013-06-27 15:45:00,
2013-06-27 10:50:00,83.4,74.2,29.79,NW,310,5.0,7.0,74,0.00,,,0.00,WeatherDisplay:10.37,2013-06-27 15:50:00,
2013-06-27 10:55:00,83.7,75.0,29.79,NW,314,3.0,6.0,75,0.00,,,0.00,WeatherDisplay:10.37,2013-06-27 15:55:00,
2013-06-27 11:00:00,83.8,74.2,29.79,WNW,298,5.0,8.0,73,0.00,,,0.00,WeatherDisplay:10.37,2013-06-27 16:00:00,
2013-06-27 11:05:00,83.9,73.9,29.79,WNW,296,5.0,8.0,72,0.00,,,0.00,WeatherDisplay:10.37,2013-06-27 16:05:00,
2013-06-27 11:10:00,84.0,73.6,29.78,WNW,297,5.0,7.0,71,0.00,,,0.00,WeatherDisplay:10.37,2013-06-27 16:10:00,
2013-06-27 11:15:00,84.2,74.2,29.79,WNW,300,5.0,7.0,72,0.00,,,0.00,WeatherDisplay:10.37,2013-06-27 16:15:00,
2013-06-27 11:25:00,85.0,72.8,29.79,NW,312,6.0,8.0,67,0.00,,,0.00,WeatherDisplay:10.37,2013-06-27 16:25:00,
2013-06-27 11:30:00,84.7,73.0,29.79,NW,315,3.0,8.0,68,0.00,,,0.00,WeatherDisplay:10.37,2013-06-27 16:30:00,
2013-06-27 11:35:00,84.3,72.6,29.79,NW,305,6.0,6.0,68,0.00,,,0.00,WeatherDisplay:10.37,2013-06-27 16:35:00,
2013-06-27 11:40:00,84.2,72.9,29.79,WNW,291,5.0,8.0,69,0.00,,,0.00,WeatherDisplay:10.37,2013-06-27 16:40:00,
2013-06-27 11:45:00,84.0,72.7,29.79,WNW,288,3.0,6.0,69,0.00,,,0.00,WeatherDisplay:10.37,2013-06-27 16:45:00,
2013-06-27 11:50:00,84.3,72.5,29.79,WNW,290,6.0,8.0,68,0.00,,,0.00,WeatherDisplay:10.37,2013-06-27 16:50:00,
2013-06-27 11:55:00,84.5,71.9,29.79,WNW,301,3.0,6.0,66,0.00,,,0.00,WeatherDisplay:10.37,2013-06-27 16:55:00,
2013-06-27 12:05:00,84.5,71.9,29.78,WNW,293,3.0,6.0,66,0.00,,,0.00,WeatherDisplay:10.37,2013-06-27 17:05:00,
2013-06-27 12:10:00,84.6,72.0,29.78,WNW,291,5.0,6.0,66,0.00,,,0.00,WeatherDisplay:10.37,2013-06-27 17:10:00,
2013-06-27 12:15:00,84.8,72.2,29.78,WNW,295,3.0,6.0,66,0.00,,,0.00,WeatherDisplay:10.37,2013-06-27 17:15:00,
2013-06-27 12:20:00,85.0,71.9,29.78,WNW,301,3.0,6.0,65,0.00,,,0.00,WeatherDisplay:10.37,2013-06-27 17:20:00,
2013-06-27 12:30:00,85.1,73.7,29.79,West,278,3.0,8.0,69,0.00,,,0.00,WeatherDisplay:10.37,2013-06-27 17:30:00,
2013-06-27 12:40:00,85.2,73.9,29.79,West,279,5.0,7.0,69,0.00,,,0.00,WeatherDisplay:10.37,2013-06-27 17:40:00,
2013-06-27 12:45:00,85.2,74.7,29.79,West,268,5.0,8.0,71,0.00,,,0.00,WeatherDisplay:10.37,2013-06-27 17:45:00,
2013-06-27 12:55:00,84.5,74.1,29.79,West,274,6.0,8.0,71,0.00,,,0.00,WeatherDisplay:10.37,2013-06-27 17:55:00,
2013-06-27 13:05:00,84.7,74.7,29.79,West,265,6.0,8.0,72,0.00,,,0.00,WeatherDisplay:10.37,2013-06-27 18:05:00,
2013-06-27 13:10:00,84.8,76.0,29.78,WSW,255,5.0,9.0,75,0.00,,,0.00,WeatherDisplay:10.37,2013-06-27 18:10:00,
2013-06-27 13:20:00,84.3,73.9,29.79,West,268,5.0,9.0,71,0.00,,,0.00,WeatherDisplay:10.37,2013-06-27 18:20:00,
2013-06-27 13:30:00,83.9,73.9,29.78,West,280,6.0,9.0,72,0.00,,,0.00,WeatherDisplay:10.37,2013-06-27 18:30:00,
2013-06-27 13:35:00,84.4,72.6,29.78,WNW,285,6.0,9.0,68,0.00,,,0.00,WeatherDisplay:10.37,2013-06-27 18:35:00,
2013-06-27 13:40:00,84.7,75.1,29.78,West,281,5.0,9.0,73,0.00,,,0.00,WeatherDisplay:10.37,2013-06-27 18:40:00,
2013-06-27 13:50:00,85.3,75.2,29.78,West,273,6.0,8.0,72,0.00,,,0.00,WeatherDisplay:10.37,2013-06-27 18:50:00,
2013-06-27 14:00:00,86.3,74.1,29.78,West,280,8.0,12.0,67,0.00,,,0.00,WeatherDisplay:10.37,2013-06-27 19:00:00,
2013-06-27 14:05:00,86.8,75.0,29.78,WNW,289,6.0,12.0,68,0.00,,,0.00,WeatherDisplay:10.37,2013-06-27 19:05:00,
2013-06-27 14:10:00,86.4,73.7,29.78,WNW,288,7.0,12.0,66,0.00,,,0.00,WeatherDisplay:10.37,2013-06-27 19:10:00,
2013-06-27 14:15:00,85.5,71.4,29.78,WNW,290,9.0,12.0,63,0.00,,,0.00,WeatherDisplay:10.37,2013-06-27 19:15:00,
2013-06-27 14:25:00,85.9,73.6,29.77,WNW,283,8.0,12.0,67,0.00,,,0.00,WeatherDisplay:10.37,2013-06-27 19:25:00,
2013-06-27 14:30:00,86.3,73.6,29.77,West,280,9.0,15.0,66,0.00,,,0.00,WeatherDisplay:10.37,2013-06-27 19:30:00,
2013-06-27 14:35:00,86.4,73.7,29.77,West,279,9.0,14.0,66,0.00,,,0.00,WeatherDisplay:10.37,2013-06-27 19:35:00,
2013-06-27 14:40:00,86.6,74.3,29.77,WNW,285,9.0,14.0,67,0.00,,,0.00,WeatherDisplay:10.37,2013-06-27 19:40:00,
2013-06-27 14:45:00,86.3,74.5,29.77,West,280,8.0,14.0,68,0.00,,,0.00,WeatherDisplay:10.37,2013-06-27 19:45:00,
2013-06-27 14:50:00,86.5,75.1,29.77,WNW,291,7.0,16.0,69,0.00,,,0.00,WeatherDisplay:10.37,2013-06-27 19:50:00,
2013-06-27 14:55:00,85.6,72.1,29.77,WNW,290,13.0,17.0,64,0.00,,,0.00,WeatherDisplay:10.37,2013-06-27 19:55:00,
2013-06-27 15:00:00,84.9,72.7,29.76,West,275,8.0,14.0,67,0.00,,,0.00,WeatherDisplay:10.37,2013-06-27 20:00:00,
2013-06-27 15:05:00,84.4,72.7,29.76,West,280,7.0,12.0,68,0.00,,,0.00,WeatherDisplay:10.37,2013-06-27 20:05:00,
2013-06-27 15:15:00,84.5,72.8,29.76,West,276,7.0,13.0,68,0.00,,,0.00,WeatherDisplay:10.37,2013-06-27 20:15:00,
2013-06-27 15:20:00,84.3,72.6,29.76,West,270,9.0,13.0,68,0.00,,,0.00,WeatherDisplay:10.37,2013-06-27 20:20:00,
2013-06-27 15:25:00,84.3,73.4,29.76,West,279,8.0,12.0,70,0.00,,,0.00,WeatherDisplay:10.37,2013-06-27 20:25:00,
2013-06-27 15:30:00,84.9,73.1,29.76,West,270,9.0,14.0,68,0.00,,,0.00,WeatherDisplay:10.37,2013-06-27 20:30:00,
2013-06-27 15:40:00,85.6,74.2,29.76,WNW,283,10.0,15.0,69,0.00,,,0.00,WeatherDisplay:10.37,2013-06-27 20:40:00,
2013-06-27 15:45:00,85.8,73.6,29.75,WNW,282,10.0,17.0,67,0.00,,,0.00,WeatherDisplay:10.37,2013-06-27 20:45:00,
2013-06-27 15:55:00,85.2,72.1,29.75,WNW,291,10.0,18.0,65,0.00,,,0.00,WeatherDisplay:10.37,2013-06-27 20:55:00,
2013-06-27 16:10:00,84.7,73.4,29.75,WNW,292,7.0,10.0,69,0.00,,,0.00,WeatherDisplay:10.37,2013-06-27 21:10:00,
2013-06-27 16:15:00,85.0,71.9,29.74,WNW,291,10.0,15.0,65,0.00,,,0.00,WeatherDisplay:10.37,2013-06-27 21:15:00,
2013-06-27 16:25:00,84.9,70.4,29.74,WNW,294,9.0,14.0,62,0.00,,,0.00,WeatherDisplay:10.37,2013-06-27 21:25:00,
2013-06-27 16:35:00,85.0,71.5,29.73,WNW,299,7.0,13.0,64,0.00,,,0.00,WeatherDisplay:10.37,2013-06-27 21:35:00,
2013-06-27 16:45:00,85.1,70.2,29.73,WNW,302,8.0,12.0,61,0.00,,,0.00,WeatherDisplay:10.37,2013-06-27 21:45:00,
2013-06-27 16:50:00,84.1,70.6,29.73,WNW,295,8.0,13.0,64,0.00,,,0.00,WeatherDisplay:10.37,2013-06-27 21:50:00,
2013-06-27 17:00:00,84.9,70.9,29.73,WNW,290,8.0,15.0,63,0.00,,,0.00,WeatherDisplay:10.37,2013-06-27 22:00:00,
2013-06-27 17:20:00,84.4,71.3,29.73,WNW,290,8.0,13.0,65,0.00,,,0.00,WeatherDisplay:10.37,2013-06-27 22:20:00,
2013-06-27 17:25:00,84.4,71.4,29.72,WNW,299,6.0,10.0,65,0.00,,,0.00,WeatherDisplay:10.37,2013-06-27 22:25:00,
2013-06-27 17:30:00,84.4,70.9,29.72,WNW,298,9.0,12.0,64,0.00,,,0.00,WeatherDisplay:10.37,2013-06-27 22:30:00,
2013-06-27 17:45:00,84.3,71.7,29.73,WNW,295,6.0,12.0,66,0.00,,,0.00,WeatherDisplay:10.37,2013-06-27 22:45:00,
2013-06-27 17:50:00,84.2,71.2,29.72,WNW,294,9.0,12.0,65,0.00,,,0.00,WeatherDisplay:10.37,2013-06-27 22:50:00,
2013-06-27 17:55:00,84.0,71.0,29.72,WNW,293,7.0,14.0,65,0.00,,,0.00,WeatherDisplay:10.37,2013-06-27 22:55:00,
2013-06-27 18:00:00,84.0,71.9,29.72,WNW,300,6.0,8.0,67,0.00,,,0.00,WeatherDisplay:10.37,2013-06-27 23:00:00,
2013-06-27 18:05:00,84.0,72.7,29.72,WNW,301,5.0,7.0,69,0.00,,,0.00,WeatherDisplay:10.37,2013-06-27 23:05:00,
2013-06-27 18:15:00,83.8,71.7,29.72,NW,308,6.0,10.0,67,0.00,,,0.00,WeatherDisplay:10.37,2013-06-27 23:15:00,
2013-06-27 18:25:00,83.7,71.6,29.72,NW,311,7.0,12.0,67,0.00,,,0.00,WeatherDisplay:10.37,2013-06-27 23:25:00,
2013-06-27 18:30:00,83.5,71.8,29.72,NW,306,8.0,13.0,68,0.00,,,0.00,WeatherDisplay:10.37,2013-06-27 23:30:00,
2013-06-27 18:55:00,82.5,70.9,29.71,NW,310,6.0,9.0,68,0.00,,,0.00,WeatherDisplay:10.37,2013-06-27 23:55:00,
2013-06-27 19:00:00,82.3,71.1,29.71,NW,322,7.0,13.0,69,0.00,,,0.00,WeatherDisplay:10.37,2013-06-28 00:00:00,
2013-06-27 19:10:00,81.9,71.2,29.71,NW,304,6.0,9.0,70,0.00,,,0.00,WeatherDisplay:10.37,2013-06-28 00:10:00,
2013-06-27 19:15:00,81.7,71.0,29.71,NW,309,6.0,12.0,70,0.00,,,0.00,WeatherDisplay:10.37,2013-06-28 00:15:00,
2013-06-27 19:20:00,81.6,70.9,29.71,NW,309,6.0,9.0,70,0.00,,,0.00,WeatherDisplay:10.37,2013-06-28 00:20:00,
2013-06-27 19:25:00,81.4,71.5,29.71,NW,311,5.0,7.0,72,0.00,,,0.00,WeatherDisplay:10.37,2013-06-28 00:25:00,
2013-06-27 19:30:00,81.2,71.7,29.71,NW,310,3.0,7.0,73,0.00,,,0.00,WeatherDisplay:10.37,2013-06-28 00:30:00,
2013-06-27 19:45:00,80.7,71.2,29.71,NW,308,5.0,7.0,73,0.00,,,0.00,WeatherDisplay:10.37,2013-06-28 00:45:00,
2013-06-27 20:05:00,79.9,70.9,29.71,NW,319,5.0,9.0,74,0.00,,,0.00,WeatherDisplay:10.37,2013-06-28 01:05:00,
2013-06-27 20:15:00,79.1,70.9,29.72,NW,321,3.0,8.0,76,0.00,,,0.00,WeatherDisplay:10.37,2013-06-28 01:15:00,
2013-06-27 20:20:00,78.8,70.6,29.72,NNW,327,5.0,7.0,76,0.00,,,0.00,WeatherDisplay:10.37,2013-06-28 01:20:00,
2013-06-27 20:30:00,78.3,70.5,29.72,NW,315,2.0,6.0,77,0.00,,,0.00,WeatherDisplay:10.37,2013-06-28 01:30:00,
2013-06-27 20:35:00,77.8,70.4,29.71,NW,326,3.0,6.0,78,0.00,,,0.00,WeatherDisplay:10.37,2013-06-28 01:35:00,
2013-06-27 20:40:00,77.5,70.5,29.71,NW,318,2.0,5.0,79,0.00,,,0.00,WeatherDisplay:10.37,2013-06-28 01:40:00,
2013-06-27 20:55:00,76.4,69.4,29.72,NW,314,3.0,7.0,79,0.00,,,0.00,WeatherDisplay:10.37,2013-06-28 01:55:00,
2013-06-27 21:10:00,76.9,67.6,29.72,NNW,337,5.0,6.0,73,0.00,,,0.00,WeatherDisplay:10.37,2013-06-28 02:10:00,
2013-06-27 21:20:00,76.8,67.1,29.73,NNW,342,3.0,8.0,72,0.00,,,0.00,WeatherDisplay:10.37,2013-06-28 02:20:00,
2013-06-27 21:25:00,76.8,67.1,29.73,NNW,347,3.0,6.0,72,0.00,,,0.00,WeatherDisplay:10.37,2013-06-28 02:25:00,
2013-06-27 21:35:00,76.1,66.8,29.73,NNW,332,2.0,4.0,73,0.00,,,0.00,WeatherDisplay:10.37,2013-06-28 02:35:00,
2013-06-27 21:40:00,75.5,66.3,29.73,NNW,327,2.0,4.0,73,0.00,,,0.00,WeatherDisplay:10.37,2013-06-28 02:40:00,
2013-06-27 21:45:00,75.2,66.3,29.74,NNW,329,2.0,3.0,74,0.00,,,0.00,WeatherDisplay:10.37,2013-06-28 02:45:00,
2013-06-27 21:50:00,74.9,66.1,29.74,NNW,330,2.0,4.0,74,0.00,,,0.00,WeatherDisplay:10.37,2013-06-28 02:50:00,
2013-06-27 21:55:00,75.1,65.5,29.74,NNW,333,3.0,5.0,72,0.00,,,0.00,WeatherDisplay:10.37,2013-06-28 02:55:00,
2013-06-27 22:00:00,75.3,65.2,29.74,NNW,327,2.0,5.0,71,0.00,,,0.00,WeatherDisplay:10.37,2013-06-28 03:00:00,
2013-06-27 22:10:00,75.5,64.6,29.74,NNW,336,3.0,7.0,69,0.00,,,0.00,WeatherDisplay:10.37,2013-06-28 03:10:00,
2013-06-27 22:25:00,75.4,63.7,29.74,NNW,332,3.0,6.0,67,0.00,,,0.00,WeatherDisplay:10.37,2013-06-28 03:25:00,
2013-06-27 22:30:00,75.4,63.3,29.74,NNW,340,3.0,5.0,66,0.00,,,0.00,WeatherDisplay:10.37,2013-06-28 03:30:00,
2013-06-27 22:35:00,75.3,63.2,29.74,NNW,339,3.0,5.0,66,0.00,,,0.00,WeatherDisplay:10.37,2013-06-28 03:35:00,
2013-06-27 22:40:00,74.4,63.6,29.74,NNW,329,3.0,5.0,69,0.00,,,0.00,WeatherDisplay:10.37,2013-06-28 03:40:00,
2013-06-27 22:50:00,72.6,63.8,29.74,NW,326,2.0,4.0,74,0.00,,,0.00,WeatherDisplay:10.37,2013-06-28 03:50:00,
2013-06-27 22:55:00,72.1,63.7,29.74,NW,325,2.0,4.0,75,0.00,,,0.00,WeatherDisplay:10.37,2013-06-28 03:55:00,
2013-06-27 23:05:00,71.7,63.7,29.75,NW,316,2.0,3.0,76,0.00,,,0.00,WeatherDisplay:10.37,2013-06-28 04:05:00,
2013-06-27 23:10:00,71.9,63.6,29.75,NW,308,3.0,4.0,75,0.00,,,0.00,WeatherDisplay:10.37,2013-06-28 04:10:00,
2013-06-27 23:15:00,71.9,63.9,29.75,NW,309,2.0,3.0,76,0.00,,,0.00,WeatherDisplay:10.37,2013-06-28 04:15:00,
2013-06-27 23:20:00,71.4,63.8,29.75,NW,304,2.0,4.0,77,0.00,,,0.00,WeatherDisplay:10.37,2013-06-28 04:20:00,
2013-06-27 23:25:00,71.0,63.4,29.75,WNW,299,2.0,3.0,77,0.00,,,0.00,WeatherDisplay:10.37,2013-06-28 04:25:00,
2013-06-27 23:30:00,70.6,63.4,29.76,NW,306,2.0,4.0,78,0.00,,,0.00,WeatherDisplay:10.37,2013-06-28 04:30:00,
2013-06-27 23:35:00,71.0,63.0,29.75,NW,315,3.0,5.0,76,0.00,,,0.00,WeatherDisplay:10.37,2013-06-28 04:35:00,
2013-06-27 23:40:00,71.4,63.4,29.76,NW,316,2.0,5.0,76,0.00,,,0.00,WeatherDisplay:10.37,2013-06-28 04:40:00,
2013-06-27 23:45:00,71.3,63.3,29.76,NW,313,2.0,3.0,76,0.00,,,0.00,WeatherDisplay:10.37,2013-06-28 04:45:00,
2013-06-27 23:50:00,71.1,63.5,29.76,NW,314,2.0,4.0,77,0.00,,,0.00,WeatherDisplay:10.37,2013-06-28 04:50:00,